Regional Weather Roundup
Issued by NWS State College, PA

Home | Current Version | Previous Version | Graphics & Text | Print | Product List | Glossary Off
Versions: 1 2 3 4 5 6 7 8 9 10 11 12 13 14 15 16 17 18 19 20 21 22 23 24 25 26 27 28 29 30 31 32 33 34 35 36 37 38 39 40 41 42 43 44 45 46 47 48 49 50

000
ASUS41 KCTP 270210
RWRCTP

REGIONAL WEATHER ROUNDUP
NATIONAL WEATHER SERVICE STATE COLLEGE PA
1000 PM EDT FRI AUG 26 2016

Note: "fair" indicates few or no clouds below 12,000 feet with no
significant weather and/or obstructions to visibility.

* = STATION THAT DOES NOT REPORT PRECIPITATION /E.G. RAIN...SNOW...ETC/
    THUNDER OR FOG.

PAZ002>004-007>009-013>016-020>023-029>032-270300-
WESTERN PENNSYLVANIA

CITY           SKY/WX    TMP DP  RH WIND       PRES   REMARKS
ERIE           CLEAR     69  63  81 CALM      30.16R
MEADVILLE      CLEAR     66  59  78 N5        30.19R
FRANKLIN*        N/A     68  61  77 CALM      30.20R
NEW CASTLE     FAIR      69  63  81 CALM      30.18R
BEAVER COUNTY  NOT AVBL
BUTLER*        NOT AVBL
PITTSBURGH INT PTCLDY    78  59  51 N5        30.16R
PITTSBURGH     CLEAR     78  59  51 NE3       30.16R
INDIANA*       PTCLDY    68  64  88 CALM      30.20R
LATROBE        PTCLDY    72  68  88 CALM      30.17R
WASHINGTON CO* CLEAR     70  66  88 CALM      30.17R
$$

PAZ004>006-010>012-017>019-024>028-033>037-041-042-045-046-049>053-270300-
CENTRAL PENNSYLVANIA

CITY           SKY/WX    TMP DP  RH WIND       PRES   REMARKS
BRADFORD       CLEAR     64  62  93 CALM      30.21R
DUBOIS         CLEAR     72  61  68 NW3       30.18R
CLEARFIELD     CLEAR     70  66  87 CALM      30.17R
JOHNSTOWN      CLEAR     73  60  63 N3        30.21R
ALTOONA        CLEAR     68  64  87 CALM      30.18R
STATE COLLEGE  PTCLDY    71  64  79 S3        30.15R
WILLIAMSPORT   CLEAR     74  66  76 CALM      30.09R
SELINSGROVE    CLEAR     69  69 100 CALM      30.10R
FT INDIANTOWN  CLEAR     71  66  84 CALM      30.10R
CAPITAL CITY   CLEAR     77  66  68 S3        30.09R
HARRISBURG     PTCLDY    75  71  87 CALM      30.08R
YORK           CLEAR     69  66  90 CALM      30.10R
$$

PAZ038>040-043-044-047-048-054-055-060>062-067>071-270300-
EASTERN PENNSYLVANIA

CITY           SKY/WX    TMP DP  RH WIND       PRES   REMARKS
SCRANTON       CLEAR     72  63  73 E7        30.12R
MOUNT POCONO   CLEAR     67  60  78 NW3       30.17R
ALLENTOWN      CLEAR     75  62  64 NW5       30.09R
QUAKERTOWN*    CLEAR     72  64  78 CALM      30.11R
READING        CLEAR     77  66  68 SW5       30.08R
LANCASTER      CLEAR     75  67  76 N5        30.09R
COATESVILLE    CLEAR     77  64  65 N5        30.11S
POTTSTOWN      CLEAR     77  66  68 N5        30.10R
BLUE BELL      CLEAR     72  66  83 CALM      30.07S
DOYLESTOWN     CLEAR     78  65  63 N5        30.08R
WILLOW GROVE   NOT AVBL
NORTH PHILA    CLEAR     80  65  59 N5        30.08R
PHILADELPHIA   CLEAR     84  65  52 NW7       30.06R
$$




USA.gov is the U.S. government's official web portal to all federal, state and local government web resources and services.